Time,TemperatureF,DewpointF,PressureIn,WindDirection,WindDirectionDegrees,WindSpeedMPH,WindSpeedGustMPH,Humidity,HourlyPrecipIn,Conditions,Clouds,dailyrainin,SoftwareType,DateUTC
2013-02-18 00:00:00,13.5,2.2,29.73,NW,311,4.0,4.0,60,0.00,,,0.00,Wunderground v.1.13,2013-02-18 05:00:00,
2013-02-18 00:05:00,13.4,2.1,29.74,WSW,245,4.0,4.0,60,0.00,,,0.00,Wunderground v.1.13,2013-02-18 05:05:00,
2013-02-18 00:15:00,13.3,2.0,29.74,WNW,294,5.0,5.0,60,0.00,,,0.00,Wunderground v.1.13,2013-02-18 05:15:00,
2013-02-18 00:20:00,13.3,2.0,29.74,NNW,344,5.0,5.0,60,0.00,,,0.00,Wunderground v.1.13,2013-02-18 05:20:00,
2013-02-18 00:25:00,13.2,2.3,29.75,SW,234,4.0,17.0,61,0.00,,,0.00,Wunderground v.1.13,2013-02-18 05:25:00,
2013-02-18 00:35:00,13.2,1.9,29.75,NW,320,4.0,4.0,60,0.00,,,0.00,Wunderground v.1.13,2013-02-18 05:35:00,
2013-02-18 00:40:00,13.2,1.9,29.75,NW,307,4.0,4.0,60,0.00,,,0.00,Wunderground v.1.13,2013-02-18 05:40:00,
2013-02-18 00:45:00,13.2,1.9,29.75,North,355,3.0,3.0,60,0.00,,,0.00,Wunderground v.1.13,2013-02-18 05:45:00,
2013-02-18 00:50:00,13.1,1.8,29.75,North,355,3.0,17.0,60,0.00,,,0.00,Wunderground v.1.13,2013-02-18 05:50:00,
2013-02-18 01:00:00,13.1,2.2,29.75,North,355,3.0,17.0,61,0.00,,,0.00,Wunderground v.1.13,2013-02-18 06:00:00,
2013-02-18 01:05:00,13.1,1.8,29.76,NNW,338,5.0,20.0,60,0.00,,,0.00,Wunderground v.1.13,2013-02-18 06:05:00,
2013-02-18 01:15:00,13.1,1.8,29.77,North,355,4.0,5.0,60,0.00,,,0.00,Wunderground v.1.13,2013-02-18 06:15:00,
2013-02-18 01:20:00,13.0,2.1,29.77,North,355,3.0,3.0,61,0.00,,,0.00,Wunderground v.1.13,2013-02-18 06:20:00,
2013-02-18 01:25:00,13.0,2.1,29.77,NNW,346,3.0,4.0,61,0.00,,,0.00,Wunderground v.1.13,2013-02-18 06:25:00,
2013-02-18 01:30:00,12.9,2.0,29.77,SW,216,4.0,4.0,61,0.00,,,0.00,Wunderground v.1.13,2013-02-18 06:30:00,
2013-02-18 01:40:00,12.9,1.6,29.77,NNW,338,3.0,8.0,60,0.00,,,0.00,Wunderground v.1.13,2013-02-18 06:40:00,
2013-02-18 01:45:00,12.8,1.5,29.77,SW,222,4.0,4.0,60,0.00,,,0.00,Wunderground v.1.13,2013-02-18 06:45:00,
2013-02-18 01:50:00,12.8,1.5,29.77,North,360,3.0,10.0,60,0.00,,,0.00,Wunderground v.1.13,2013-02-18 06:50:00,
2013-02-18 01:55:00,12.7,1.4,29.77,North,360,3.0,3.0,60,0.00,,,0.00,Wunderground v.1.13,2013-02-18 06:55:00,
2013-02-18 02:05:00,12.6,1.7,29.77,South,171,3.0,4.0,61,0.00,,,0.00,Wunderground v.1.13,2013-02-18 07:05:00,
2013-02-18 02:10:00,12.5,1.6,29.78,NNW,340,3.0,3.0,61,0.00,,,0.00,Wunderground v.1.13,2013-02-18 07:10:00,
2013-02-18 02:15:00,12.5,1.2,29.78,North,355,4.0,20.0,60,0.00,,,0.00,Wunderground v.1.13,2013-02-18 07:15:00,
2013-02-18 02:20:00,12.5,1.6,29.78,NW,306,4.0,4.0,61,0.00,,,0.00,Wunderground v.1.13,2013-02-18 07:20:00,
2013-02-18 02:30:00,12.3,1.0,29.79,NNW,340,4.0,20.0,60,0.00,,,0.00,Wunderground v.1.13,2013-02-18 07:30:00,
2013-02-18 02:35:00,12.3,1.0,29.79,WNW,294,4.0,20.0,60,0.00,,,0.00,Wunderground v.1.13,2013-02-18 07:35:00,
2013-02-18 02:40:00,12.3,1.4,29.79,North,355,3.0,20.0,61,0.00,,,0.00,Wunderground v.1.13,2013-02-18 07:40:00,
2013-02-18 02:45:00,12.2,1.7,29.80,North,9,3.0,20.0,62,0.00,,,0.00,Wunderground v.1.13,2013-02-18 07:45:00,
2013-02-18 02:55:00,12.2,1.3,29.80,North,360,5.0,20.0,61,0.00,,,0.00,Wunderground v.1.13,2013-02-18 07:55:00,
2013-02-18 03:00:00,12.2,1.3,29.80,WNW,284,5.0,20.0,61,0.00,,,0.00,Wunderground v.1.13,2013-02-18 08:00:00,
2013-02-18 03:05:00,12.2,1.7,29.80,NW,325,5.0,5.0,62,0.00,,,0.00,Wunderground v.1.13,2013-02-18 08:05:00,
2013-02-18 03:15:00,12.1,1.2,29.80,NW,323,4.0,20.0,61,0.00,,,0.00,Wunderground v.1.13,2013-02-18 08:15:00,
2013-02-18 03:20:00,12.1,1.2,29.80,North,360,4.0,20.0,61,0.00,,,0.00,Wunderground v.1.13,2013-02-18 08:20:00,
2013-02-18 03:25:00,12.0,1.5,29.81,NNW,343,4.0,4.0,62,0.00,,,0.00,Wunderground v.1.13,2013-02-18 08:25:00,
2013-02-18 03:30:00,12.0,1.1,29.81,NW,326,5.0,20.0,61,0.00,,,0.00,Wunderground v.1.13,2013-02-18 08:30:00,
2013-02-18 03:40:00,11.9,1.0,29.81,NW,318,3.0,20.0,61,0.00,,,0.00,Wunderground v.1.13,2013-02-18 08:40:00,
2013-02-18 03:45:00,11.9,1.0,29.82,North,10,3.0,20.0,61,0.00,,,0.00,Wunderground v.1.13,2013-02-18 08:45:00,
2013-02-18 03:50:00,11.8,0.9,29.82,NW,320,3.0,3.0,61,0.00,,,0.00,Wunderground v.1.13,2013-02-18 08:50:00,
2013-02-18 03:55:00,11.8,0.9,29.82,WNW,283,3.0,3.0,61,0.00,,,0.00,Wunderground v.1.13,2013-02-18 08:55:00,
2013-02-18 04:05:00,11.7,0.8,29.82,North,9,4.0,4.0,61,0.00,,,0.00,Wunderground v.1.13,2013-02-18 09:05:00,
2013-02-18 04:10:00,11.7,0.8,29.83,NNW,332,5.0,5.0,61,0.00,,,0.00,Wunderground v.1.13,2013-02-18 09:10:00,
2013-02-18 04:15:00,11.7,1.2,29.83,North,349,4.0,4.0,62,0.00,,,0.00,Wunderground v.1.13,2013-02-18 09:15:00,
2013-02-18 04:20:00,11.7,1.2,29.84,North,5,3.0,20.0,62,0.00,,,0.00,Wunderground v.1.13,2013-02-18 09:20:00,
2013-02-18 04:30:00,11.7,1.2,29.84,SW,230,4.0,4.0,62,0.00,,,0.00,Wunderground v.1.13,2013-02-18 09:30:00,
2013-02-18 04:35:00,11.6,1.1,29.84,NNE,18,3.0,3.0,62,0.00,,,0.00,Wunderground v.1.13,2013-02-18 09:35:00,
2013-02-18 04:40:00,11.6,1.1,29.85,NNW,340,3.0,20.0,62,0.00,,,0.00,Wunderground v.1.13,2013-02-18 09:40:00,
2013-02-18 04:50:00,11.6,0.7,29.86,NNW,348,5.0,5.0,61,0.00,,,0.00,Wunderground v.1.13,2013-02-18 09:50:00,
2013-02-18 04:55:00,11.6,0.7,29.86,NNW,340,3.0,20.0,61,0.00,,,0.00,Wunderground v.1.13,2013-02-18 09:55:00,
2013-02-18 05:00:00,11.6,1.1,29.86,North,349,3.0,3.0,62,0.00,,,0.00,Wunderground v.1.13,2013-02-18 10:00:00,
2013-02-18 05:05:00,11.5,1.0,29.87,North,355,3.0,3.0,62,0.00,,,0.00,Wunderground v.1.13,2013-02-18 10:05:00,
2013-02-18 05:10:00,11.4,0.9,29.87,NW,322,3.0,3.0,62,0.00,,,0.00,Wunderground v.1.13,2013-02-18 10:10:00,
2013-02-18 05:20:00,11.4,0.9,29.88,NNW,327,3.0,3.0,62,0.00,,,0.00,Wunderground v.1.13,2013-02-18 10:20:00,
2013-02-18 05:25:00,11.4,0.9,29.88,NNW,336,4.0,4.0,62,0.00,,,0.00,Wunderground v.1.13,2013-02-18 10:25:00,
2013-02-18 05:30:00,11.3,0.8,29.89,WNW,286,3.0,20.0,62,0.00,,,0.00,Wunderground v.1.13,2013-02-18 10:30:00,
2013-02-18 05:40:00,11.4,0.9,29.89,WNW,287,4.0,4.0,62,0.00,,,0.00,Wunderground v.1.13,2013-02-18 10:40:00,
2013-02-18 05:45:00,11.3,0.8,29.90,NW,310,5.0,20.0,62,0.00,,,0.00,Wunderground v.1.13,2013-02-18 10:45:00,
2013-02-18 05:50:00,11.4,0.9,29.90,NW,319,6.0,6.0,62,0.00,,,0.00,Wunderground v.1.13,2013-02-18 10:50:00,
2013-02-18 05:55:00,11.4,0.9,29.90,WNW,298,5.0,20.0,62,0.00,,,0.00,Wunderground v.1.13,2013-02-18 10:55:00,
2013-02-18 06:05:00,11.3,0.8,29.91,NW,322,4.0,20.0,62,0.00,,,0.00,Wunderground v.1.13,2013-02-18 11:05:00,
2013-02-18 06:10:00,11.2,0.7,29.91,WSW,254,3.0,3.0,62,0.00,,,0.00,Wunderground v.1.13,2013-02-18 11:10:00,
2013-02-18 06:15:00,11.1,0.6,29.92,West,280,3.0,3.0,62,0.00,,,0.00,Wunderground v.1.13,2013-02-18 11:15:00,
2013-02-18 06:20:00,11.0,0.5,29.93,WSW,244,4.0,20.0,62,0.00,,,0.00,Wunderground v.1.13,2013-02-18 11:20:00,
2013-02-18 06:30:00,11.0,0.5,29.93,North,360,3.0,20.0,62,0.00,,,0.00,Wunderground v.1.13,2013-02-18 11:30:00,
2013-02-18 06:35:00,10.9,0.8,29.93,North,349,3.0,20.0,63,0.00,,,0.00,Wunderground v.1.13,2013-02-18 11:35:00,
2013-02-18 06:40:00,10.8,0.7,29.93,North,355,2.0,2.0,63,0.00,,,0.00,Wunderground v.1.13,2013-02-18 11:40:00,
2013-02-18 06:45:00,10.8,0.7,29.94,North,355,3.0,20.0,63,0.00,,,0.00,Wunderground v.1.13,2013-02-18 11:45:00,
2013-02-18 06:55:00,10.8,0.7,29.95,NNW,347,3.0,3.0,63,0.00,,,0.00,Wunderground v.1.13,2013-02-18 11:55:00,
2013-02-18 07:00:00,10.8,0.7,29.95,North,360,3.0,20.0,63,0.00,,,0.00,Wunderground v.1.13,2013-02-18 12:00:00,
2013-02-18 07:05:00,10.8,0.7,29.95,NNW,334,2.0,20.0,63,0.00,,,0.00,Wunderground v.1.13,2013-02-18 12:05:00,
2013-02-18 07:10:00,10.8,0.7,29.96,NW,323,3.0,3.0,63,0.00,,,0.00,Wunderground v.1.13,2013-02-18 12:10:00,
2013-02-18 07:20:00,10.9,0.8,29.96,NW,323,3.0,3.0,63,0.00,,,0.00,Wunderground v.1.13,2013-02-18 12:20:00,
2013-02-18 07:25:00,11.0,0.9,29.97,NNW,331,3.0,20.0,63,0.00,,,0.00,Wunderground v.1.13,2013-02-18 12:25:00,
2013-02-18 07:30:00,11.1,0.9,29.97,North,360,4.0,20.0,63,0.00,,,0.00,Wunderground v.1.13,2013-02-18 12:30:00,
2013-02-18 07:35:00,11.2,1.0,29.97,NNW,331,4.0,4.0,63,0.00,,,0.00,Wunderground v.1.13,2013-02-18 12:35:00,
2013-02-18 07:40:00,11.3,0.8,29.97,WNW,287,4.0,20.0,62,0.00,,,0.00,Wunderground v.1.13,2013-02-18 12:40:00,
2013-02-18 07:50:00,11.6,1.4,29.98,NW,321,4.0,4.0,63,0.00,,,0.00,Wunderground v.1.13,2013-02-18 12:50:00,
2013-02-18 07:55:00,11.7,1.2,29.98,North,355,4.0,20.0,62,0.00,,,0.00,Wunderground v.1.13,2013-02-18 12:55:00,
2013-02-18 08:00:00,11.9,1.4,29.98,West,260,5.0,5.0,62,0.00,,,0.00,Wunderground v.1.13,2013-02-18 13:00:00,
2013-02-18 08:10:00,12.5,1.9,30.00,NNW,334,6.0,6.0,62,0.00,,,0.00,Wunderground v.1.13,2013-02-18 13:10:00,
2013-02-18 08:15:00,12.9,2.0,30.00,NW,311,4.0,4.0,61,0.00,,,0.00,Wunderground v.1.13,2013-02-18 13:15:00,
2013-02-18 08:20:00,13.3,2.0,30.00,NW,309,3.0,3.0,60,0.00,,,0.00,Wunderground v.1.13,2013-02-18 13:20:00,
2013-02-18 08:25:00,13.6,2.3,30.01,NW,311,3.0,3.0,60,0.00,,,0.00,Wunderground v.1.13,2013-02-18 13:25:00,
2013-02-18 08:35:00,13.9,2.2,30.00,NW,315,3.0,20.0,59,0.00,,,0.00,Wunderground v.1.13,2013-02-18 13:35:00,
2013-02-18 08:40:00,14.2,2.5,30.01,WNW,298,5.0,5.0,59,0.00,,,0.00,Wunderground v.1.13,2013-02-18 13:40:00,
2013-02-18 08:45:00,14.4,2.7,30.01,NNW,332,3.0,3.0,59,0.00,,,0.00,Wunderground v.1.13,2013-02-18 13:45:00,
2013-02-18 08:50:00,14.8,3.0,30.02,North,360,2.0,20.0,59,0.00,,,0.00,Wunderground v.1.13,2013-02-18 13:50:00,
2013-02-18 08:55:00,15.1,3.0,30.02,WNW,288,2.0,20.0,58,0.00,,,0.00,Wunderground v.1.13,2013-02-18 13:55:00,
2013-02-18 09:00:00,15.3,3.1,30.02,WNW,295,2.0,2.0,58,0.00,,,0.00,Wunderground v.1.13,2013-02-18 14:00:00,
2013-02-18 09:10:00,16.1,3.5,30.02,NNW,338,3.0,3.0,57,0.00,,,0.00,Wunderground v.1.13,2013-02-18 14:10:00,
2013-02-18 09:15:00,16.5,3.5,30.02,North,350,4.0,20.0,56,0.00,,,0.00,Wunderground v.1.13,2013-02-18 14:15:00,
2013-02-18 09:25:00,17.5,4.5,30.02,NW,304,4.0,4.0,56,0.00,,,0.00,Wunderground v.1.13,2013-02-18 14:25:00,
2013-02-18 09:30:00,18.2,4.7,30.02,WNW,301,3.0,3.0,55,0.00,,,0.00,Wunderground v.1.13,2013-02-18 14:30:00,
2013-02-18 09:35:00,19.1,5.2,30.02,NNW,346,3.0,3.0,54,0.00,,,0.00,Wunderground v.1.13,2013-02-18 14:35:00,
2013-02-18 09:40:00,20.1,6.1,30.02,NW,306,3.0,3.0,54,0.00,,,0.00,Wunderground v.1.13,2013-02-18 14:40:00,
2013-02-18 09:45:00,20.8,5.9,30.02,NW,318,3.0,20.0,52,0.00,,,0.00,Wunderground v.1.13,2013-02-18 14:45:00,
2013-02-18 09:55:00,22.3,6.4,30.02,NNW,346,3.0,3.0,50,0.00,,,0.00,Wunderground v.1.13,2013-02-18 14:55:00,
2013-02-18 10:00:00,22.8,6.0,30.02,NNW,329,4.0,4.0,48,0.00,,,0.00,Wunderground v.1.13,2013-02-18 15:00:00,
2013-02-18 10:05:00,23.5,6.2,30.02,North,355,3.0,20.0,47,0.00,,,0.00,Wunderground v.1.13,2013-02-18 15:05:00,
2013-02-18 10:10:00,23.9,6.1,30.02,WNW,299,3.0,20.0,46,0.00,,,0.00,Wunderground v.1.13,2013-02-18 15:10:00,
2013-02-18 10:20:00,24.7,6.3,30.03,NW,309,4.0,20.0,45,0.00,,,0.00,Wunderground v.1.13,2013-02-18 15:20:00,
2013-02-18 10:25:00,25.1,6.2,30.03,WSW,257,4.0,4.0,44,0.00,,,0.00,Wunderground v.1.13,2013-02-18 15:25:00,
2013-02-18 10:30:00,25.2,6.3,30.04,WNW,285,4.0,4.0,44,0.00,,,0.01,Wunderground v.1.13,2013-02-18 15:30:00,
2013-02-18 10:35:00,25.5,6.1,30.03,NW,319,3.0,3.0,43,0.00,,,0.01,Wunderground v.1.13,2013-02-18 15:35:00,
2013-02-18 10:40:00,26.0,6.0,30.03,WSW,246,2.0,2.0,42,0.00,,,0.01,Wunderground v.1.13,2013-02-18 15:40:00,
2013-02-18 10:50:00,24.9,4.5,30.03,SW,221,4.0,20.0,41,0.00,,,0.01,Wunderground v.1.13,2013-02-18 15:50:00,
2013-02-18 11:00:00,23.4,5.2,30.04,WSW,241,4.0,4.0,45,0.00,,,0.01,Wunderground v.1.13,2013-02-18 16:00:00,
2013-02-18 11:10:00,23.9,5.6,30.03,NNW,330,4.0,4.0,45,0.00,,,0.01,Wunderground v.1.13,2013-02-18 16:10:00,
2013-02-18 11:20:00,24.4,6.1,30.04,West,268,3.0,3.0,45,0.00,,,0.02,Wunderground v.1.13,2013-02-18 16:20:00,
2013-02-18 11:25:00,24.6,4.7,30.04,SSW,210,3.0,20.0,42,0.00,,,0.02,Wunderground v.1.13,2013-02-18 16:25:00,
2013-02-18 11:35:00,25.5,6.6,30.03,SSW,212,3.0,20.0,44,0.00,,,0.02,Wunderground v.1.13,2013-02-18 16:35:00,
2013-02-18 11:40:00,25.6,6.2,30.03,WSW,257,3.0,3.0,43,0.00,,,0.02,Wunderground v.1.13,2013-02-18 16:40:00,
2013-02-18 11:45:00,26.5,7.0,30.04,West,278,3.0,20.0,43,0.00,,,0.02,Wunderground v.1.13,2013-02-18 16:45:00,
2013-02-18 11:50:00,26.8,5.7,30.03,North,355,3.0,20.0,40,0.00,,,0.02,Wunderground v.1.13,2013-02-18 16:50:00,
2013-02-18 11:55:00,27.0,6.4,30.04,WSW,238,4.0,4.0,41,0.00,,,0.02,Wunderground v.1.13,2013-02-18 16:55:00,
2013-02-18 12:05:00,27.3,6.7,30.04,South,186,4.0,20.0,41,0.00,,,0.02,Wunderground v.1.13,2013-02-18 17:05:00,
2013-02-18 12:10:00,28.0,7.3,30.04,West,280,4.0,20.0,41,0.00,,,0.02,Wunderground v.1.13,2013-02-18 17:10:00,
2013-02-18 12:15:00,27.6,5.8,30.03,NW,323,4.0,20.0,39,0.00,,,0.02,Wunderground v.1.13,2013-02-18 17:15:00,
2013-02-18 12:25:00,27.9,6.1,30.04,SW,219,4.0,20.0,39,0.00,,,0.03,Wunderground v.1.13,2013-02-18 17:25:00,
2013-02-18 12:30:00,28.5,7.2,30.04,West,274,4.0,4.0,40,0.00,,,0.03,Wunderground v.1.13,2013-02-18 17:30:00,
2013-02-18 12:35:00,28.7,7.9,30.03,WNW,296,4.0,4.0,41,0.00,,,0.03,Wunderground v.1.13,2013-02-18 17:35:00,
2013-02-18 12:40:00,29.3,7.9,30.03,North,355,4.0,4.0,40,0.00,,,0.03,Wunderground v.1.13,2013-02-18 17:40:00,
2013-02-18 12:45:00,29.1,7.2,30.04,North,5,4.0,4.0,39,0.00,,,0.03,Wunderground v.1.13,2013-02-18 17:45:00,
2013-02-18 12:55:00,28.9,6.4,30.03,NNW,334,2.0,20.0,38,0.00,,,0.03,Wunderground v.1.13,2013-02-18 17:55:00,
2013-02-18 13:00:00,28.9,8.1,30.04,WSW,244,3.0,20.0,41,0.00,,,0.03,Wunderground v.1.13,2013-02-18 18:00:00,
2013-02-18 13:05:00,28.8,5.8,30.04,NNW,337,4.0,4.0,37,0.00,,,0.03,Wunderground v.1.13,2013-02-18 18:05:00,
2013-02-18 13:10:00,29.0,6.5,30.04,North,355,3.0,20.0,38,0.00,,,0.03,Wunderground v.1.13,2013-02-18 18:10:00,
2013-02-18 13:20:00,29.1,6.6,30.05,NW,313,5.0,5.0,38,0.00,,,0.03,Wunderground v.1.13,2013-02-18 18:20:00,
2013-02-18 13:25:00,28.8,6.3,30.04,NNW,335,4.0,4.0,38,0.00,,,0.03,Wunderground v.1.13,2013-02-18 18:25:00,
2013-02-18 13:30:00,28.9,5.8,30.05,North,350,3.0,20.0,37,0.00,,,0.03,Wunderground v.1.13,2013-02-18 18:30:00,
2013-02-18 13:40:00,29.4,7.5,30.05,North,360,4.0,20.0,39,0.00,,,0.03,Wunderground v.1.13,2013-02-18 18:40:00,
2013-02-18 13:45:00,29.5,6.4,30.05,SSW,209,4.0,4.0,37,0.00,,,0.03,Wunderground v.1.13,2013-02-18 18:45:00,
2013-02-18 13:50:00,29.2,7.8,30.05,WSW,250,5.0,5.0,40,0.00,,,0.03,Wunderground v.1.13,2013-02-18 18:50:00,
2013-02-18 13:55:00,29.0,4.7,30.05,WSW,237,5.0,20.0,35,0.00,,,0.03,Wunderground v.1.13,2013-02-18 18:55:00,
2013-02-18 14:05:00,28.5,6.6,30.05,SW,218,5.0,20.0,39,0.00,,,0.03,Wunderground v.1.13,2013-02-18 19:05:00,
2013-02-18 14:10:00,28.7,6.8,30.05,North,360,3.0,3.0,39,0.00,,,0.03,Wunderground v.1.13,2013-02-18 19:10:00,
2013-02-18 14:15:00,29.0,5.9,30.05,West,269,3.0,20.0,37,0.00,,,0.03,Wunderground v.1.13,2013-02-18 19:15:00,
2013-02-18 14:20:00,29.0,5.3,30.06,West,261,3.0,20.0,36,0.00,,,0.03,Wunderground v.1.13,2013-02-18 19:20:00,
2013-02-18 14:30:00,28.4,4.8,30.06,West,263,5.0,20.0,36,0.00,,,0.03,Wunderground v.1.13,2013-02-18 19:30:00,
2013-02-18 14:35:00,28.6,6.2,30.06,NW,306,5.0,5.0,38,0.00,,,0.03,Wunderground v.1.13,2013-02-18 19:35:00,
2013-02-18 14:40:00,28.8,8.0,30.06,WNW,290,4.0,4.0,41,0.00,,,0.03,Wunderground v.1.13,2013-02-18 19:40:00,
2013-02-18 14:45:00,29.1,5.4,30.06,NW,321,3.0,3.0,36,0.00,,,0.03,Wunderground v.1.13,2013-02-18 19:45:00,
2013-02-18 14:55:00,29.3,5.6,30.06,NW,323,4.0,4.0,36,0.00,,,0.03,Wunderground v.1.13,2013-02-18 19:55:00,
2013-02-18 15:00:00,29.2,4.9,30.06,NNW,333,5.0,5.0,35,0.00,,,0.03,Wunderground v.1.13,2013-02-18 20:00:00,
2013-02-18 15:05:00,29.3,6.2,30.06,North,355,4.0,4.0,37,0.00,,,0.03,Wunderground v.1.13,2013-02-18 20:05:00,
2013-02-18 15:10:00,29.4,6.9,30.06,SW,236,2.0,20.0,38,0.00,,,0.03,Wunderground v.1.13,2013-02-18 20:10:00,
2013-02-18 15:20:00,29.2,5.5,30.07,West,280,3.0,3.0,36,0.00,,,0.03,Wunderground v.1.13,2013-02-18 20:20:00,
2013-02-18 15:25:00,29.0,5.3,30.07,WNW,287,3.0,3.0,36,0.00,,,0.03,Wunderground v.1.13,2013-02-18 20:25:00,
2013-02-18 15:30:00,29.2,5.5,30.06,SSW,211,2.0,20.0,36,0.00,,,0.03,Wunderground v.1.13,2013-02-18 20:30:00,
2013-02-18 15:40:00,29.3,5.6,30.07,North,355,2.0,20.0,36,0.00,,,0.03,Wunderground v.1.13,2013-02-18 20:40:00,
2013-02-18 15:45:00,29.2,4.9,30.07,West,274,3.0,20.0,35,0.00,,,0.03,Wunderground v.1.13,2013-02-18 20:45:00,
2013-02-18 15:50:00,28.8,5.2,30.07,WSW,241,4.0,4.0,36,0.00,,,0.04,Wunderground v.1.13,2013-02-18 20:50:00,
2013-02-18 16:00:00,28.7,4.5,30.07,SW,219,3.0,3.0,35,0.00,,,0.04,Wunderground v.1.13,2013-02-18 21:00:00,
2013-02-18 16:05:00,28.5,4.9,30.07,North,360,3.0,3.0,36,0.00,,,0.04,Wunderground v.1.13,2013-02-18 21:05:00,
2013-02-18 16:10:00,28.5,5.5,30.08,NNW,344,2.0,20.0,37,0.00,,,0.04,Wunderground v.1.13,2013-02-18 21:10:00,
2013-02-18 16:15:00,28.5,4.3,30.08,West,265,2.0,2.0,35,0.00,,,0.04,Wunderground v.1.13,2013-02-18 21:15:00,
2013-02-18 16:25:00,28.1,4.5,30.08,NNW,331,3.0,3.0,36,0.00,,,0.04,Wunderground v.1.13,2013-02-18 21:25:00,
2013-02-18 16:30:00,27.9,3.7,30.09,West,279,4.0,20.0,35,0.00,,,0.04,Wunderground v.1.13,2013-02-18 21:30:00,
2013-02-18 16:35:00,27.8,3.0,30.09,NW,319,4.0,20.0,34,0.00,,,0.04,Wunderground v.1.13,2013-02-18 21:35:00,
2013-02-18 16:45:00,27.6,4.1,30.09,NNW,342,3.0,20.0,36,0.00,,,0.04,Wunderground v.1.13,2013-02-18 21:45:00,
2013-02-18 16:50:00,27.5,2.8,30.09,SW,219,3.0,20.0,34,0.00,,,0.04,Wunderground v.1.13,2013-02-18 21:50:00,
2013-02-18 16:55:00,27.2,3.1,30.09,NNW,328,3.0,3.0,35,0.00,,,0.04,Wunderground v.1.13,2013-02-18 21:55:00,
2013-02-18 17:00:00,27.0,2.3,30.09,WNW,302,3.0,3.0,34,0.00,,,0.04,Wunderground v.1.13,2013-02-18 22:00:00,
2013-02-18 17:10:00,26.6,2.6,30.10,West,269,2.0,2.0,35,0.00,,,0.04,Wunderground v.1.13,2013-02-18 22:10:00,
2013-02-18 17:15:00,26.3,1.7,30.10,NNW,348,3.0,20.0,34,0.00,,,0.04,Wunderground v.1.13,2013-02-18 22:15:00,
2013-02-18 17:20:00,26.1,2.7,30.10,WNW,282,2.0,2.0,36,0.00,,,0.04,Wunderground v.1.13,2013-02-18 22:20:00,
2013-02-18 17:25:00,26.0,2.7,30.11,WSW,241,1.0,20.0,36,0.00,,,0.04,Wunderground v.1.13,2013-02-18 22:25:00,
2013-02-18 17:35:00,25.6,2.9,30.11,WSW,237,2.0,2.0,37,0.00,,,0.04,Wunderground v.1.13,2013-02-18 22:35:00,
2013-02-18 17:40:00,25.4,2.7,30.11,WNW,287,1.0,1.0,37,0.00,,,0.04,Wunderground v.1.13,2013-02-18 22:40:00,
2013-02-18 17:45:00,25.3,2.6,30.11,WSW,246,2.0,2.0,37,0.00,,,0.04,Wunderground v.1.13,2013-02-18 22:45:00,
2013-02-18 17:50:00,25.2,3.1,30.11,NW,310,3.0,3.0,38,0.00,,,0.04,Wunderground v.1.13,2013-02-18 22:50:00,
2013-02-18 17:55:00,25.1,3.0,30.11,WSW,248,2.0,20.0,38,0.00,,,0.04,Wunderground v.1.13,2013-02-18 22:55:00,
2013-02-18 18:05:00,24.9,2.8,30.12,WNW,293,2.0,20.0,38,0.00,,,0.04,Wunderground v.1.13,2013-02-18 23:05:00,
2013-02-18 18:10:00,24.9,1.7,30.12,SSW,203,3.0,20.0,36,0.00,,,0.04,Wunderground v.1.13,2013-02-18 23:10:00,
2013-02-18 18:20:00,24.9,2.3,30.12,NW,316,3.0,3.0,37,0.00,,,0.04,Wunderground v.1.13,2013-02-18 23:20:00,
2013-02-18 18:25:00,24.9,2.3,30.12,WNW,287,3.0,3.0,37,0.00,,,0.04,Wunderground v.1.13,2013-02-18 23:25:00,
2013-02-18 18:30:00,24.8,2.2,30.12,WSW,251,2.0,2.0,37,0.00,,,0.04,Wunderground v.1.13,2013-02-18 23:30:00,
2013-02-18 18:35:00,24.8,2.7,30.13,NNW,345,2.0,2.0,38,0.00,,,0.04,Wunderground v.1.13,2013-02-18 23:35:00,
2013-02-18 18:45:00,24.6,3.1,30.13,WNW,300,2.0,2.0,39,0.00,,,0.04,Wunderground v.1.13,2013-02-18 23:45:00,
2013-02-18 18:55:00,24.4,3.5,30.13,West,265,2.0,20.0,40,0.00,,,0.04,Wunderground v.1.13,2013-02-18 23:55:00,
2013-02-18 19:00:00,24.3,2.9,30.13,WSW,237,2.0,20.0,39,0.00,,,0.04,Wunderground v.1.13,2013-02-19 00:00:00,
2013-02-18 19:10:00,24.2,2.8,30.13,West,272,2.0,2.0,39,0.00,,,0.04,Wunderground v.1.13,2013-02-19 00:10:00,
2013-02-18 19:15:00,24.1,2.7,30.14,West,279,1.0,1.0,39,0.00,,,0.04,Wunderground v.1.13,2013-02-19 00:15:00,
2013-02-18 19:25:00,23.9,3.0,30.14,WSW,257,1.0,1.0,40,0.00,,,0.04,Wunderground v.1.13,2013-02-19 00:25:00,
2013-02-18 19:30:00,23.8,3.0,30.14,WSW,250,1.0,20.0,40,0.00,,,0.04,Wunderground v.1.13,2013-02-19 00:30:00,
2013-02-18 19:40:00,23.6,2.8,30.15,WSW,252,1.0,20.0,40,0.00,,,0.04,Wunderground v.1.13,2013-02-19 00:40:00,
2013-02-18 19:45:00,23.5,3.7,30.15,West,261,1.0,20.0,42,0.00,,,0.04,Wunderground v.1.13,2013-02-19 00:45:00,
2013-02-18 19:50:00,23.4,3.6,30.15,West,265,1.0,1.0,42,0.00,,,0.04,Wunderground v.1.13,2013-02-19 00:50:00,
2013-02-18 20:00:00,23.1,3.9,30.15,West,273,1.0,20.0,43,0.00,,,0.04,Wunderground v.1.13,2013-02-19 01:00:00,
2013-02-18 20:05:00,22.9,3.7,30.14,West,270,2.0,7.0,43,0.00,,,0.04,Wunderground v.1.13,2013-02-19 01:05:00,
2013-02-18 20:10:00,22.8,3.6,30.14,West,270,2.0,10.0,43,0.00,,,0.04,Wunderground v.1.13,2013-02-19 01:10:00,
2013-02-18 20:15:00,22.6,3.9,30.14,WNW,293,1.0,5.0,44,0.00,,,0.04,Wunderground v.1.13,2013-02-19 01:15:00,
2013-02-18 20:20:00,22.5,3.8,30.15,WNW,293,1.0,7.0,44,0.00,,,0.04,Wunderground v.1.13,2013-02-19 01:20:00,
2013-02-18 20:25:00,22.4,3.7,30.15,WSW,248,2.0,9.0,44,0.00,,,0.04,Wunderground v.1.13,2013-02-19 01:25:00,
2013-02-18 20:30:00,22.4,3.7,30.15,West,270,2.0,13.0,44,0.00,,,0.04,Wunderground v.1.13,2013-02-19 01:30:00,
2013-02-18 20:35:00,22.3,3.7,30.15,WSW,248,3.0,16.0,44,0.00,,,0.04,Wunderground v.1.13,2013-02-19 01:35:00,
2013-02-18 20:40:00,22.2,3.6,30.15,West,270,3.0,14.0,44,0.00,,,0.04,Wunderground v.1.13,2013-02-19 01:40:00,
2013-02-18 20:45:00,22.2,3.6,30.15,West,270,1.0,7.0,44,0.00,,,0.04,Wunderground v.1.13,2013-02-19 01:45:00,
2013-02-18 20:50:00,22.1,4.0,30.15,West,270,3.0,16.0,45,0.00,,,0.04,Wunderground v.1.13,2013-02-19 01:50:00,
2013-02-18 20:55:00,22.1,4.0,30.16,West,270,2.0,16.0,45,0.00,,,0.04,Wunderground v.1.13,2013-02-19 01:55:00,
2013-02-18 21:00:00,22.0,3.4,30.16,WSW,248,3.0,13.0,44,0.00,,,0.04,Wunderground v.1.13,2013-02-19 02:00:00,
2013-02-18 21:05:00,22.0,3.9,30.16,WSW,248,1.0,7.0,45,0.00,,,0.04,Wunderground v.1.13,2013-02-19 02:05:00,
2013-02-18 21:10:00,22.0,4.3,30.16,WSW,248,1.0,10.0,46,0.00,,,0.04,Wunderground v.1.13,2013-02-19 02:10:00,
2013-02-18 21:15:00,21.9,3.8,30.15,WSW,248,2.0,13.0,45,0.00,,,0.04,Wunderground v.1.13,2013-02-19 02:15:00,
2013-02-18 21:20:00,21.9,3.8,30.15,West,270,2.0,10.0,45,0.00,,,0.04,Wunderground v.1.13,2013-02-19 02:20:00,
2013-02-18 21:25:00,21.9,3.8,30.16,WSW,248,2.0,10.0,45,0.00,,,0.04,Wunderground v.1.13,2013-02-19 02:25:00,
2013-02-18 21:30:00,21.9,3.8,30.16,West,270,3.0,13.0,45,0.00,,,0.04,Wunderground v.1.13,2013-02-19 02:30:00,
2013-02-18 21:35:00,21.9,3.8,30.16,West,270,2.0,13.0,45,0.00,,,0.04,Wunderground v.1.13,2013-02-19 02:35:00,
2013-02-18 21:40:00,21.9,3.8,30.16,West,270,3.0,15.0,45,0.00,,,0.04,Wunderground v.1.13,2013-02-19 02:40:00,
2013-02-18 21:45:00,21.8,4.2,30.16,WSW,248,2.0,7.0,46,0.00,,,0.04,Wunderground v.1.13,2013-02-19 02:45:00,
2013-02-18 21:50:00,21.8,4.2,30.16,WSW,248,2.0,9.0,46,0.00,,,0.04,Wunderground v.1.13,2013-02-19 02:50:00,
2013-02-18 21:55:00,21.7,3.6,30.16,WSW,248,2.0,7.0,45,0.00,,,0.04,Wunderground v.1.13,2013-02-19 02:55:00,
2013-02-18 22:00:00,21.7,4.1,30.17,WSW,248,1.0,7.0,46,0.00,,,0.04,Wunderground v.1.13,2013-02-19 03:00:00,
2013-02-18 22:05:00,21.7,4.1,30.17,West,270,2.0,10.0,46,0.00,,,0.04,Wunderground v.1.13,2013-02-19 03:05:00,
2013-02-18 22:10:00,21.6,4.0,30.17,West,270,1.0,10.0,46,0.00,,,0.04,Wunderground v.1.13,2013-02-19 03:10:00,
2013-02-18 22:15:00,21.6,4.0,30.18,WSW,248,2.0,13.0,46,0.00,,,0.04,Wunderground v.1.13,2013-02-19 03:15:00,
2013-02-18 22:20:00,21.5,3.9,30.18,SW,225,3.0,12.0,46,0.00,,,0.04,Wunderground v.1.13,2013-02-19 03:20:00,
2013-02-18 22:25:00,21.5,3.9,30.18,SW,225,1.0,10.0,46,0.00,,,0.04,Wunderground v.1.13,2013-02-19 03:25:00,
2013-02-18 22:30:00,21.5,4.4,30.17,West,270,2.0,9.0,47,0.00,,,0.04,Wunderground v.1.13,2013-02-19 03:30:00,
2013-02-18 22:35:00,21.5,3.9,30.18,West,270,4.0,16.0,46,0.00,,,0.04,Wunderground v.1.13,2013-02-19 03:35:00,
2013-02-18 22:40:00,21.5,3.9,30.18,West,270,3.0,13.0,46,0.00,,,0.04,Wunderground v.1.13,2013-02-19 03:40:00,
2013-02-18 22:45:00,21.6,4.0,30.17,West,270,2.0,12.0,46,0.00,,,0.04,Wunderground v.1.13,2013-02-19 03:45:00,
2013-02-18 22:50:00,21.5,3.9,30.18,West,270,3.0,12.0,46,0.00,,,0.04,Wunderground v.1.13,2013-02-19 03:50:00,
2013-02-18 22:55:00,21.5,3.9,30.18,West,270,1.0,5.0,46,0.00,,,0.04,Wunderground v.1.13,2013-02-19 03:55:00,
2013-02-18 23:00:00,21.5,3.9,30.18,West,270,2.0,12.0,46,0.00,,,0.04,Wunderground v.1.13,2013-02-19 04:00:00,
2013-02-18 23:05:00,21.5,3.9,30.18,WSW,248,3.0,12.0,46,0.00,,,0.04,Wunderground v.1.13,2013-02-19 04:05:00,
2013-02-18 23:10:00,21.4,4.3,30.18,WSW,248,2.0,7.0,47,0.00,,,0.04,Wunderground v.1.13,2013-02-19 04:10:00,
2013-02-18 23:15:00,21.4,4.3,30.18,WSW,248,2.0,7.0,47,0.00,,,0.04,Wunderground v.1.13,2013-02-19 04:15:00,
2013-02-18 23:20:00,21.4,3.8,30.18,WSW,248,1.0,6.0,46,0.00,,,0.04,Wunderground v.1.13,2013-02-19 04:20:00,
2013-02-18 23:25:00,21.4,3.8,30.18,West,270,2.0,10.0,46,0.00,,,0.04,Wunderground v.1.13,2013-02-19 04:25:00,
2013-02-18 23:30:00,21.5,3.9,30.17,WSW,248,2.0,11.0,46,0.00,,,0.04,Wunderground v.1.13,2013-02-19 04:30:00,
2013-02-18 23:40:00,21.6,3.5,30.17,SW,225,2.0,7.0,45,0.00,,,0.04,Wunderground v.1.13,2013-02-19 04:40:00,
2013-02-18 23:45:00,21.6,3.5,30.17,WSW,248,1.0,6.0,45,0.00,,,0.04,Wunderground v.1.13,2013-02-19 04:45:00,
2013-02-18 23:50:00,21.7,3.6,30.18,WSW,248,2.0,7.0,45,0.00,,,0.04,Wunderground v.1.13,2013-02-19 04:50:00,
2013-02-18 23:55:00,21.7,3.6,30.18,WSW,248,1.0,3.0,45,0.00,,,0.04,Wunderground v.1.13,2013-02-19 04:55:00,